Change the Weather History Date:

Thursday, July 18, 2013

  Actual Average (PABN) Record (PABN)
Temperature  
Mean Temperature 61 °F -  
Max Temperature 79 °F 59 °F 69 °F (2003)
Min Temperature 44 °F 50 °F 42 °F (2001)
Degree Days  
Heating Degree Days 4    
Growing Degree Days 11 (Base 50)    
Moisture  
Dew Point 49 °F    
Average Humidity 70    
Maximum Humidity 97    
Minimum Humidity 35    
Precipitation  
Precipitation 0.00 in - - ()
Sea Level Pressure  
Sea Level Pressure 30.07 in    
Wind  
Wind Speed 1 mph (East)    
Max Wind Speed 7 mph    
Max Gust Speed -    
Visibility 9 miles    
Events Rain    
Averages and records for this station are not official NWS values.
T = Trace of Precipitation, MM = Missing Value Source: NWS Daily Summary

Daily Weather History Graph

Daily Weather History Graph

Search for Another Location

Airport or City:

Trip Planner

Search our weather history database for the weather conditions in past years. The results will help you decide how hot, cold, wet, or windy it might be!

Date:

Astronomy

Jul. 18, 2013 Rise Set
Actual Time 3:38 AM AKDT 11:20 PM AKDT
Civil Twilight 2:03 AM AKDT 12:58 AM AKDT
Nautical Twilight Sun does not rise Sun does not rise
Astronomical Twilight Sun does not rise Sun does not rise
Moon 7:08 PM AKDT (7/18) 12:12 AM AKDT (7/18)
Length of Visible Light 22h 55m
Length of Day
19h 42m
Waxing Gibbous, 79% of the Moon is Illuminated
Jul 18
Waxing Gibbous
Jul 22
Full
Jul 29
Last Quarter
Aug 6
New
Aug 14
First Quarter

Hourly Weather History & Observations

Time (AKDT) Temp. Windchill Dew Point Humidity Pressure Visibility Wind Dir Wind Speed Gust Speed Precip Events Conditions
12:53 AM 52.0 °F - 50.0 °F 93% 30.06 in 6.0 mi Calm Calm - N/A   Clear
1:53 AM 48.0 °F - 46.0 °F 93% 30.08 in 8.0 mi Calm Calm - N/A   Partly Cloudy
2:53 AM 46.9 °F - 45.0 °F 93% 30.09 in 8.0 mi Calm Calm - N/A   Mostly Cloudy
3:53 AM 48.0 °F - 46.0 °F 93% 30.11 in 7.0 mi Calm Calm - N/A   Overcast
4:53 AM 45.0 °F - 44.1 °F 97% 30.12 in 6.0 mi Calm Calm - N/A   Mostly Cloudy
5:09 AM 44.6 °F 43.1 °F 42.8 °F 93% 30.11 in 5.0 mi South 3.5 mph - N/A   Mostly Cloudy
5:20 AM 46.4 °F - 44.6 °F 93% 30.11 in 8.0 mi Calm Calm - N/A   Scattered Clouds
5:53 AM 48.9 °F - 46.9 °F 93% 30.13 in 10.0 mi Calm Calm - N/A   Scattered Clouds
6:53 AM 54.0 °F - 50.0 °F 86% 30.14 in 10.0 mi Calm Calm - N/A   Clear
7:53 AM 57.0 °F - 51.1 °F 81% 30.14 in 10.0 mi Calm Calm - N/A   Clear
8:53 AM 61.0 °F - 51.1 °F 70% 30.14 in 10.0 mi Calm Calm - N/A   Mostly Cloudy
9:53 AM 63.0 °F - 51.1 °F 65% 30.13 in 10.0 mi Calm Calm - N/A   Overcast
10:53 AM 66.9 °F - 52.0 °F 59% 30.12 in 10.0 mi NE 3.5 mph - N/A   Overcast
11:53 AM 69.1 °F - 53.1 °F 57% 30.11 in 10.0 mi Calm Calm - N/A   Partly Cloudy
12:53 PM 73.0 °F - 50.0 °F 44% 30.09 in 10.0 mi NNE 5.8 mph - N/A   Mostly Cloudy
1:53 PM 73.9 °F - 48.0 °F 40% 30.08 in 10.0 mi NE 5.8 mph - N/A   Partly Cloudy
2:53 PM 73.0 °F - 48.0 °F 41% 30.06 in 10.0 mi ESE 3.5 mph - N/A   Mostly Cloudy
3:53 PM 78.1 °F - 48.0 °F 35% 30.04 in 10.0 mi Variable 3.5 mph - N/A   Mostly Cloudy
4:53 PM 73.9 °F - 46.0 °F 37% 30.02 in 10.0 mi SE 4.6 mph - N/A   Clear
5:53 PM 75.0 °F - 46.0 °F 36% 30.01 in 10.0 mi SE 6.9 mph - N/A   Clear
6:53 PM 69.1 °F - 52.0 °F 54% 30.02 in 10.0 mi Variable 6.9 mph - 0.00 in Rain Light Rain
7:53 PM 66.9 °F - 52.0 °F 59% 30.01 in 10.0 mi ESE 4.6 mph - 0.00 in   Mostly Cloudy
8:53 PM 66.0 °F - 55.0 °F 68% 30.00 in 10.0 mi Calm Calm - N/A   Scattered Clouds
9:53 PM 64.0 °F - 57.0 °F 78% 30.00 in 10.0 mi Calm Calm - N/A   Mostly Cloudy
10:53 PM 62.1 °F - 55.9 °F 80% 29.99 in 10.0 mi Calm Calm - N/A   Mostly Cloudy
11:53 PM 59.0 °F - 53.1 °F 81% 29.99 in 10.0 mi Calm Calm - N/A   Overcast